Time,TemperatureF,DewpointF,PressureIn,WindDirection,WindDirectionDegrees,WindSpeedMPH,WindSpeedGustMPH,Humidity,HourlyPrecipIn,Conditions,Clouds,dailyrainin,SoftwareType,DateUTC
2013-05-10 00:06:00,57.0,51.0,30.11,WNW,300,2.0,6.0,81,0.00,,,0.00,weatherlink.com 1.10,2013-05-10 07:06:00,
2013-05-10 00:21:00,56.5,51.0,30.12,NW,305,0.0,4.0,82,0.00,,,0.00,weatherlink.com 1.10,2013-05-10 07:21:00,
2013-05-10 00:36:00,56.0,51.0,30.13,NE,34,3.0,3.0,83,0.00,,,0.00,weatherlink.com 1.10,2013-05-10 07:36:00,
2013-05-10 00:51:00,55.5,51.0,30.13,NE,39,0.0,3.0,85,0.00,,,0.00,weatherlink.com 1.10,2013-05-10 07:51:00,
2013-05-10 01:06:00,55.0,51.0,30.14,East,89,0.0,6.0,85,0.00,,,0.00,weatherlink.com 1.10,2013-05-10 08:06:00,
2013-05-10 01:21:00,54.7,51.0,30.14,NE,55,1.0,4.0,86,0.00,,,0.00,weatherlink.com 1.10,2013-05-10 08:21:00,
2013-05-10 01:36:00,54.5,51.0,30.15,NNE,32,2.0,3.0,87,0.00,,,0.00,weatherlink.com 1.10,2013-05-10 08:36:00,
2013-05-10 01:51:00,54.1,51.0,30.15,NNE,12,2.0,4.0,88,0.00,,,0.00,weatherlink.com 1.10,2013-05-10 08:51:00,
2013-05-10 02:06:00,54.1,51.0,30.15,North,5,1.0,6.0,88,0.00,,,0.00,weatherlink.com 1.10,2013-05-10 09:06:00,
2013-05-10 02:21:00,53.7,50.0,30.15,NNE,33,0.0,3.0,88,0.00,,,0.00,weatherlink.com 1.10,2013-05-10 09:21:00,
2013-05-10 02:36:00,52.6,50.0,30.15,WNW,293,1.0,2.0,90,0.00,,,0.00,weatherlink.com 1.10,2013-05-10 09:36:00,
2013-05-10 02:51:00,53.0,50.0,30.15,NNE,26,3.0,5.0,90,0.00,,,0.00,weatherlink.com 1.10,2013-05-10 09:51:00,
2013-05-10 03:06:00,53.3,50.0,30.15,North,354,3.0,4.0,89,0.00,,,0.00,weatherlink.com 1.10,2013-05-10 10:06:00,
2013-05-10 03:21:00,55.2,51.0,30.15,SSE,151,0.0,4.0,87,0.00,,,0.00,weatherlink.com 1.10,2013-05-10 10:21:00,
2013-05-10 03:36:00,52.8,50.0,30.15,East,92,1.0,1.0,89,0.00,,,0.00,weatherlink.com 1.10,2013-05-10 10:36:00,
2013-05-10 03:51:00,51.8,49.0,30.15,East,94,0.0,0.0,91,0.00,,,0.00,weatherlink.com 1.10,2013-05-10 10:51:00,
2013-05-10 04:06:00,51.6,49.0,30.14,East,90,0.0,1.0,92,0.00,,,0.00,weatherlink.com 1.10,2013-05-10 11:06:00,
2013-05-10 04:21:00,51.7,50.0,30.14,ENE,72,0.0,1.0,92,0.00,,,0.00,weatherlink.com 1.10,2013-05-10 11:21:00,
2013-05-10 04:36:00,50.8,49.0,30.14,ESE,113,0.0,0.0,93,0.00,,,0.00,weatherlink.com 1.10,2013-05-10 11:36:00,
2013-05-10 04:51:00,50.3,48.0,30.15,East,88,1.0,1.0,93,0.00,,,0.00,weatherlink.com 1.10,2013-05-10 11:51:00,
2013-05-10 05:06:00,50.4,49.0,30.14,East,81,0.0,1.0,94,0.00,,,0.00,weatherlink.com 1.10,2013-05-10 12:06:00,
2013-05-10 05:21:00,49.8,48.0,30.15,ESE,105,0.0,1.0,94,0.00,,,0.00,weatherlink.com 1.10,2013-05-10 12:21:00,
2013-05-10 05:36:00,49.6,48.0,30.15,ENE,73,0.0,1.0,95,0.00,,,0.00,weatherlink.com 1.10,2013-05-10 12:36:00,
2013-05-10 05:51:00,49.7,48.0,30.15,ENE,75,0.0,1.0,94,0.00,,,0.00,weatherlink.com 1.10,2013-05-10 12:51:00,
2013-05-10 06:06:00,49.8,49.0,30.16,ENE,75,0.0,1.0,95,0.00,,,0.00,weatherlink.com 1.10,2013-05-10 13:06:00,
2013-05-10 06:21:00,49.7,48.0,30.16,East,88,0.0,0.0,95,0.00,,,0.00,weatherlink.com 1.10,2013-05-10 13:21:00,
2013-05-10 06:36:00,50.0,49.0,30.16,ENE,71,0.0,1.0,95,0.00,,,0.00,weatherlink.com 1.10,2013-05-10 13:36:00,
2013-05-10 06:52:00,50.4,49.0,30.16,East,89,0.0,1.0,95,0.00,,,0.00,weatherlink.com 1.10,2013-05-10 13:52:00,
2013-05-10 07:07:00,50.5,49.0,30.16,East,89,0.0,0.0,95,0.00,,,0.00,weatherlink.com 1.10,2013-05-10 14:07:00,
2013-05-10 07:22:00,50.5,49.0,30.17,West,262,0.0,1.0,94,0.00,,,0.00,weatherlink.com 1.10,2013-05-10 14:22:00,
2013-05-10 07:37:00,50.3,49.0,30.18,West,263,0.0,0.0,95,0.00,,,0.00,weatherlink.com 1.10,2013-05-10 14:37:00,
2013-05-10 07:52:00,51.9,50.0,30.18,West,266,0.0,2.0,94,0.00,,,0.00,weatherlink.com 1.10,2013-05-10 14:52:00,
2013-05-10 08:07:00,55.0,53.0,30.18,West,266,0.0,1.0,93,0.00,,,0.00,weatherlink.com 1.10,2013-05-10 15:07:00,
2013-05-10 08:22:00,55.7,52.0,30.18,West,263,0.0,2.0,87,0.00,,,0.00,weatherlink.com 1.10,2013-05-10 15:22:00,
2013-05-10 08:37:00,58.6,54.0,30.18,West,273,0.0,1.0,84,0.00,,,0.00,weatherlink.com 1.10,2013-05-10 15:37:00,
2013-05-10 08:52:00,58.5,53.0,30.18,SSW,211,0.0,2.0,83,0.00,,,0.00,weatherlink.com 1.10,2013-05-10 15:52:00,
2013-05-10 09:07:00,59.7,55.0,30.18,WSW,245,0.0,1.0,83,0.00,,,0.00,weatherlink.com 1.10,2013-05-10 16:07:00,
2013-05-10 09:23:00,60.9,55.0,30.18,South,172,0.0,3.0,82,0.00,,,0.00,weatherlink.com 1.10,2013-05-10 16:23:00,
2013-05-10 09:37:00,61.9,56.0,30.18,SSE,164,0.0,2.0,80,0.00,,,0.00,weatherlink.com 1.10,2013-05-10 16:37:00,
2013-05-10 09:52:00,62.3,55.0,30.18,NNW,335,0.0,3.0,78,0.00,,,0.00,weatherlink.com 1.10,2013-05-10 16:52:00,
2013-05-10 10:07:00,64.5,56.0,30.17,SSW,211,2.0,3.0,75,0.00,,,0.00,weatherlink.com 1.10,2013-05-10 17:07:00,
2013-05-10 10:22:00,64.6,57.0,30.17,SW,219,1.0,5.0,75,0.00,,,0.00,weatherlink.com 1.10,2013-05-10 17:22:00,
2013-05-10 10:37:00,64.8,56.0,30.17,WSW,248,2.0,5.0,73,0.00,,,0.00,weatherlink.com 1.10,2013-05-10 17:37:00,
2013-05-10 10:52:00,65.8,56.0,30.17,SE,134,0.0,4.0,71,0.00,,,0.00,weatherlink.com 1.10,2013-05-10 17:52:00,
2013-05-10 11:07:00,66.9,57.0,30.16,SW,217,1.0,4.0,70,0.00,,,0.00,weatherlink.com 1.10,2013-05-10 18:07:00,
2013-05-10 11:22:00,67.6,57.0,30.17,SW,231,4.0,4.0,68,0.00,,,0.00,weatherlink.com 1.10,2013-05-10 18:22:00,
2013-05-10 11:37:00,68.0,58.0,30.16,SSE,165,0.0,5.0,71,0.00,,,0.00,weatherlink.com 1.10,2013-05-10 18:37:00,
2013-05-10 11:52:00,70.0,60.0,30.16,WSW,256,0.0,3.0,70,0.00,,,0.00,weatherlink.com 1.10,2013-05-10 18:52:00,
2013-05-10 12:07:00,70.9,58.0,30.15,WNW,285,2.0,6.0,65,0.00,,,0.00,weatherlink.com 1.10,2013-05-10 19:07:00,
2013-05-10 12:22:00,71.2,58.0,30.15,WNW,291,3.0,6.0,64,0.00,,,0.00,weatherlink.com 1.10,2013-05-10 19:22:00,
2013-05-10 12:37:00,72.0,57.0,30.15,WNW,298,4.0,7.0,59,0.00,,,0.00,weatherlink.com 1.10,2013-05-10 19:37:00,
2013-05-10 12:52:00,73.3,57.0,30.14,West,276,5.0,7.0,56,0.00,,,0.00,weatherlink.com 1.10,2013-05-10 19:52:00,
2013-05-10 13:07:00,73.9,59.0,30.14,West,267,3.0,7.0,59,0.00,,,0.00,weatherlink.com 1.10,2013-05-10 20:07:00,
2013-05-10 13:22:00,74.5,58.0,30.13,West,278,5.0,8.0,57,0.00,,,0.00,weatherlink.com 1.10,2013-05-10 20:22:00,
2013-05-10 13:37:00,74.9,57.0,30.13,West,262,7.0,11.0,54,0.00,,,0.00,weatherlink.com 1.10,2013-05-10 20:37:00,
2013-05-10 13:53:00,75.9,58.0,30.13,North,356,5.0,10.0,55,0.00,,,0.00,weatherlink.com 1.10,2013-05-10 20:53:00,
2013-05-10 14:08:00,75.7,56.0,30.12,West,278,6.0,11.0,51,0.00,,,0.00,weatherlink.com 1.10,2013-05-10 21:08:00,
2013-05-10 14:23:00,76.5,57.0,30.12,West,276,5.0,13.0,51,0.00,,,0.00,weatherlink.com 1.10,2013-05-10 21:23:00,
2013-05-10 14:38:00,77.2,56.0,30.12,WNW,291,5.0,11.0,48,0.00,,,0.00,weatherlink.com 1.10,2013-05-10 21:38:00,
2013-05-10 14:53:00,77.9,57.0,30.11,West,263,2.0,10.0,49,0.00,,,0.00,weatherlink.com 1.10,2013-05-10 21:53:00,
2013-05-10 15:08:00,77.8,58.0,30.11,West,267,3.0,9.0,50,0.00,,,0.00,weatherlink.com 1.10,2013-05-10 22:08:00,
2013-05-10 15:23:00,78.6,57.0,30.10,WNW,302,3.0,10.0,47,0.00,,,0.00,weatherlink.com 1.10,2013-05-10 22:23:00,
2013-05-10 15:38:00,78.4,58.0,30.10,WNW,286,7.0,11.0,50,0.00,,,0.00,weatherlink.com 1.10,2013-05-10 22:38:00,
2013-05-10 15:53:00,78.1,58.0,30.09,West,274,3.0,9.0,50,0.00,,,0.00,weatherlink.com 1.10,2013-05-10 22:53:00,
2013-05-10 16:08:00,78.1,59.0,30.09,WSW,255,8.0,10.0,52,0.00,,,0.00,weatherlink.com 1.10,2013-05-10 23:08:00,
2013-05-10 16:23:00,78.7,59.0,30.09,WSW,257,4.0,9.0,51,0.00,,,0.00,weatherlink.com 1.10,2013-05-10 23:23:00,
2013-05-10 16:38:00,79.2,60.0,30.08,West,262,6.0,8.0,52,0.00,,,0.00,weatherlink.com 1.10,2013-05-10 23:38:00,
2013-05-10 16:53:00,78.7,58.0,30.08,WNW,282,4.0,10.0,50,0.00,,,0.00,weatherlink.com 1.10,2013-05-10 23:53:00,
2013-05-10 17:08:00,78.5,58.0,30.08,WNW,296,4.0,16.0,50,0.00,,,0.00,weatherlink.com 1.10,2013-05-11 00:08:00,
2013-05-10 17:23:00,77.9,58.0,30.08,NNE,29,2.0,9.0,50,0.00,,,0.00,weatherlink.com 1.10,2013-05-11 00:23:00,
2013-05-10 17:38:00,76.7,57.0,30.09,WNW,290,5.0,7.0,51,0.00,,,0.00,weatherlink.com 1.10,2013-05-11 00:38:00,
2013-05-10 17:53:00,76.0,57.0,30.09,NNW,330,3.0,11.0,52,0.00,,,0.00,weatherlink.com 1.10,2013-05-11 00:53:00,
2013-05-10 18:08:00,76.3,56.0,30.09,North,352,6.0,10.0,49,0.00,,,0.00,weatherlink.com 1.10,2013-05-11 01:08:00,
2013-05-10 18:23:00,75.0,55.0,30.09,NNW,338,2.0,10.0,50,0.00,,,0.00,weatherlink.com 1.10,2013-05-11 01:23:00,
2013-05-10 18:38:00,73.8,54.0,30.08,NE,39,1.0,7.0,51,0.00,,,0.00,weatherlink.com 1.10,2013-05-11 01:38:00,
2013-05-10 18:53:00,73.2,55.0,30.08,NNE,29,1.0,7.0,53,0.00,,,0.00,weatherlink.com 1.10,2013-05-11 01:53:00,
2013-05-10 19:08:00,72.4,55.0,30.08,North,9,3.0,9.0,54,0.00,,,0.00,weatherlink.com 1.10,2013-05-11 02:08:00,
2013-05-10 19:23:00,71.4,55.0,30.08,NW,314,4.0,7.0,56,0.00,,,0.00,weatherlink.com 1.10,2013-05-11 02:23:00,
2013-05-10 19:38:00,70.6,55.0,30.09,North,352,2.0,11.0,58,0.00,,,0.00,weatherlink.com 1.10,2013-05-11 02:38:00,
2013-05-10 19:53:00,69.6,54.0,30.10,NNW,328,3.0,10.0,59,0.00,,,0.00,weatherlink.com 1.10,2013-05-11 02:53:00,
2013-05-10 20:08:00,68.6,54.0,30.10,North,352,3.0,9.0,60,0.00,,,0.00,weatherlink.com 1.10,2013-05-11 03:08:00,
2013-05-10 20:23:00,67.9,54.0,30.11,NNE,25,4.0,11.0,61,0.00,,,0.00,weatherlink.com 1.10,2013-05-11 03:23:00,
2013-05-10 20:38:00,66.9,53.0,30.11,ENE,63,4.0,11.0,62,0.00,,,0.00,weatherlink.com 1.10,2013-05-11 03:38:00,
2013-05-10 20:53:00,66.2,54.0,30.12,NNE,26,6.0,8.0,64,0.00,,,0.00,weatherlink.com 1.10,2013-05-11 03:53:00,
2013-05-10 21:08:00,66.3,53.0,30.12,NNW,342,2.0,8.0,63,0.00,,,0.00,weatherlink.com 1.10,2013-05-11 04:08:00,
2013-05-10 21:23:00,65.9,53.0,30.13,NNE,13,4.0,8.0,63,0.00,,,0.00,weatherlink.com 1.10,2013-05-11 04:23:00,
2013-05-10 21:38:00,65.5,52.0,30.14,WSW,252,0.0,6.0,63,0.00,,,0.00,weatherlink.com 1.10,2013-05-11 04:38:00,
2013-05-10 21:53:00,64.5,52.0,30.14,WNW,294,3.0,9.0,65,0.00,,,0.00,weatherlink.com 1.10,2013-05-11 04:53:00,
2013-05-10 22:08:00,63.4,52.0,30.14,NW,321,4.0,7.0,67,0.00,,,0.00,weatherlink.com 1.10,2013-05-11 05:08:00,
2013-05-10 22:23:00,62.8,52.0,30.14,NW,321,2.0,8.0,68,0.00,,,0.00,weatherlink.com 1.10,2013-05-11 05:23:00,
2013-05-10 22:38:00,62.4,51.0,30.15,NNW,344,5.0,13.0,66,0.00,,,0.00,weatherlink.com 1.10,2013-05-11 05:38:00,
2013-05-10 22:53:00,62.2,50.0,30.14,North,349,2.0,10.0,65,0.00,,,0.00,weatherlink.com 1.10,2013-05-11 05:53:00,
2013-05-10 23:08:00,62.5,49.0,30.14,WSW,256,2.0,7.0,62,0.00,,,0.00,weatherlink.com 1.10,2013-05-11 06:08:00,
2013-05-10 23:23:00,61.4,50.0,30.15,NW,308,6.0,6.0,66,0.00,,,0.00,weatherlink.com 1.10,2013-05-11 06:23:00,
2013-05-10 23:38:00,59.9,50.0,30.15,NNW,328,2.0,6.0,70,0.00,,,0.00,weatherlink.com 1.10,2013-05-11 06:38:00,
2013-05-10 23:53:00,60.0,50.0,30.15,West,268,1.0,10.0,69,0.00,,,0.00,weatherlink.com 1.10,2013-05-11 06:53:00,